Find OneWeb SL0616

NORAD ID: 55157 Int'l Des: 2023-004 Owner: ONEWEBN Country: UK Constellation: oneweb operational
別名: ONEWEB-0616 spacetrack, celestrak
LEOCIRCULARPOLARONEWEB_TYPE

現在のビュー

3D地球を読み込み中...

About OneWeb SL0616

OneWeb SL0616 (NORAD 55157) is a oneweb constellation satellite launched Jan 10, 2023 by ONEWEBN of UK. It operates in LEO, CIRCULAR, POLAR, ONEWEB_TYPE orbit with a mass of 148.00 kg.

次回通過

Passes for default location (London). Set your location on the main map for personalized predictions.

高度履歴

Loading altitude history...

軌道要素

1 55157U 23004T 26265.72099835 -.00000113 00000-0 -32332-3 0 9999
2 55157 87.9199 346.5019 0002174 74.8993 285.2379 13.17647224180541
Epoch: Sep 22, 2026 • Age: 12 hours

現在のステータス

高度 1218.5 km
遠地点 / 近地点 N/A
速度 7.24 km/s
衛星直下点 -61.35°S, 105.75°W
打ち上げ日 Jan 10, 2023
運用期間 3.7 years
タイプ internet

技術仕様

分類 Payload
質量 148.00 kg
乾燥質量 140.00 kg
長さ 1.30 m
直径 1.00 m
スパン 5.00 m
形状 ? Trapezoid+2 pan
製造者 ONEWUS
バスタイプ ARROW
フェーズステータス In Orbit
所有者/国 ONEWEBN/UK

Most Searched